Weather History for Omaha Offutt, NE

Change the Weather History Date:

Friday, December 20, 2013

  Actual Average Record
Temperature  
Mean Temperature 16 °F -  
Max Temperature 19 °F 32 °F 51 °F (2001)
Min Temperature 14 °F 15 °F 0 °F (1996)
Degree Days  
Heating Degree Days 48    
Moisture  
Dew Point 15 °F    
Average Humidity 92    
Maximum Humidity 100    
Minimum Humidity 82    
Precipitation  
Precipitation 0.00 in - - ()
Sea Level Pressure  
Sea Level Pressure 29.95 in    
Wind  
Wind Speed 11 mph (NW)    
Max Wind Speed 16 mph    
Max Gust Speed 23 mph    
Visibility 9 miles    
Events Snow    
Averages and records for this station are not official NWS values.
T = Trace of Precipitation, MM = Missing Value Source: NWS Daily Summary

Daily Weather History Graph

Daily Weather History Graph

Search for Another Location

Airport:

Trip Planner

Search our weather history database for the weather conditions in past years. The results will help you decide how hot, cold, wet, or windy it might be!

Date:

Astronomy

Dec. 20, 2013 Rise Set
Actual Time 7:45 AM CST 4:57 PM CST
Civil Twilight 7:13 AM CST 5:29 PM CST
Nautical Twilight 6:39 AM CST 6:03 PM CST
Astronomical Twilight 6:05 AM CST 6:37 PM CST
Moon 8:21 PM CST 9:38 AM CST
Length of Visible Light 10h 15m
Length of Day
9h 12m
Waning Gibbous, 90% of the Moon is Illuminated
Dec 20
Waning Gibbous
Dec 25
Last Quarter
Jan 1
New
Jan 7
First Quarter
Jan 15
Full

Hourly Weather History & Observations

Time (CST) Temp. Windchill Dew Point Humidity Pressure Visibility Wind Dir Wind Speed Gust Speed Precip Events Conditions
12:54 AM 19.4 °F 5.0 °F 19.4 °F 100% 29.87 in 9.0 mi North 16.1 mph 20.7 mph N/A Snow Light Freezing Drizzle
12:58 AM 19.4 °F 7.2 °F 19.4 °F 100% 29.92 in 7.0 mi North 11.5 mph - N/A Snow Light Freezing Drizzle
1:12 AM 19.4 °F 5.5 °F 19.4 °F 100% 29.88 in 10.0 mi North 15.0 mph 20.7 mph N/A   Light Freezing Drizzle
1:22 AM 19.4 °F 6.0 °F 19.4 °F 100% 29.88 in 9.0 mi NNW 13.8 mph 23.0 mph N/A   Overcast
1:42 AM 19.4 °F 6.6 °F 19.4 °F 100% 29.88 in 7.0 mi NNW 12.7 mph 21.9 mph N/A   Overcast
1:58 AM 19.0 °F 6.8 °F 18.9 °F 99% 29.93 in 7.0 mi NNW 11.5 mph 19.6 mph N/A   Overcast
2:58 AM 18.7 °F 5.7 °F 18.1 °F 98% 29.94 in 10.0 mi NNW 12.7 mph - N/A   Overcast
3:58 AM 18.1 °F 3.4 °F 17.6 °F 98% 29.97 in 10.0 mi NNW 16.1 mph - N/A   Overcast
4:40 AM 15.8 °F 2.1 °F 15.8 °F 100% 29.92 in 10.0 mi NNW 12.7 mph - N/A Snow Light Snow
4:58 AM 16.3 °F 2.1 °F 15.8 °F 98% 29.98 in 10.0 mi NNW 13.8 mph 18.4 mph 0.00 in Snow Light Snow
5:58 AM 16.0 °F 2.9 °F 15.3 °F 97% 29.99 in 10.0 mi NW 11.5 mph 18.4 mph 0.00 in   Overcast
6:00 AM 15.8 °F 2.1 °F 15.8 °F 100% 29.93 in 10.0 mi NW 12.7 mph 18.4 mph N/A Snow Light Snow
6:25 AM 15.8 °F 3.4 °F 14.0 °F 93% 29.94 in 10.0 mi NNW 10.4 mph - N/A Snow Light Snow
6:35 AM 15.8 °F 1.4 °F 14.0 °F 93% 29.93 in 10.0 mi NNW 13.8 mph - N/A Snow Light Snow
6:58 AM 15.1 °F -0.1 °F 14.2 °F 96% 30.00 in 10.0 mi NNW 15.0 mph - 0.00 in Snow Light Snow
7:03 AM 15.8 °F 2.7 °F 14.0 °F 93% 29.95 in 9.0 mi NNW 11.5 mph 20.7 mph N/A Snow Light Snow
7:43 AM 14.0 °F -0.8 °F 14.0 °F 100% 29.95 in 6.0 mi NNW 13.8 mph - N/A Snow Light Snow
7:58 AM 14.9 °F 0.3 °F 13.6 °F 95% 30.02 in 4.0 mi NNW 13.8 mph - 0.00 in Snow Light Snow
8:03 AM 14.0 °F 2.0 °F 14.0 °F 100% 29.96 in 4.0 mi NNW 9.2 mph - N/A Snow Light Snow
8:13 AM 14.0 °F -0.2 °F 14.0 °F 100% 29.96 in 6.0 mi NNW 12.7 mph 18.4 mph N/A Snow Light Snow
8:58 AM 14.0 °F -0.8 °F 14.0 °F 100% 30.03 in 6.0 mi NW 13.8 mph - 0.00 in Snow Light Snow
9:58 AM 15.3 °F 4.4 °F 13.8 °F 94% 30.03 in 8.0 mi NNW 8.1 mph - 0.00 in Snow Light Snow
10:58 AM 15.4 °F 3.8 °F 13.8 °F 93% 30.04 in 9.0 mi NNW 9.2 mph - 0.00 in Snow Light Snow
11:58 AM 16.3 °F 4.9 °F 14.5 °F 93% 30.01 in 7.0 mi NW 9.2 mph - 0.00 in Snow Light Snow
12:23 PM 15.8 °F 2.7 °F 14.0 °F 93% 29.94 in 8.0 mi NNW 11.5 mph - N/A Snow Light Snow
12:28 PM 15.8 °F 4.2 °F 14.0 °F 93% 29.94 in 9.0 mi NNW 9.2 mph - N/A Snow Light Snow
12:58 PM 17.6 °F 6.4 °F 14.0 °F 86% 29.99 in 10.0 mi NW 9.2 mph - 0.00 in Snow Light Snow
1:49 PM 17.6 °F 6.4 °F 15.8 °F 93% 29.92 in 10.0 mi WNW 9.2 mph - N/A   Overcast
1:58 PM 17.6 °F 6.4 °F 15.1 °F 90% 29.97 in 10.0 mi NW 9.2 mph - 0.00 in   Overcast
2:58 PM 17.8 °F 10.9 °F 15.3 °F 90% 29.91 in 10.0 mi NW 4.6 mph - N/A   Overcast
3:58 PM 18.0 °F 9.8 °F 15.1 °F 88% 29.99 in 10.0 mi NW 5.8 mph - N/A   Overcast
4:58 PM 18.0 °F 8.7 °F 14.9 °F 88% 30.01 in 10.0 mi West 6.9 mph - N/A   Overcast
5:28 PM 17.6 °F 7.3 °F 14.0 °F 86% 29.95 in 10.0 mi WNW 8.1 mph - N/A   Mostly Cloudy
5:33 PM 17.6 °F 7.3 °F 14.0 °F 86% 29.95 in 10.0 mi NW 8.1 mph - N/A   Scattered Clouds
5:48 PM 17.6 °F 9.3 °F 14.0 °F 86% 29.94 in 10.0 mi NW 5.8 mph - N/A   Mostly Cloudy
5:58 PM 17.8 °F 9.6 °F 14.5 °F 87% 30.00 in 10.0 mi NW 5.8 mph - N/A   Mostly Cloudy
6:03 PM 17.6 °F 8.2 °F 14.0 °F 86% 29.93 in 10.0 mi NW 6.9 mph - N/A   Scattered Clouds
6:18 PM 17.6 °F 8.2 °F 14.0 °F 86% 29.92 in 10.0 mi NW 6.9 mph - N/A   Mostly Cloudy
6:33 PM 17.6 °F 8.2 °F 14.0 °F 86% 29.92 in 10.0 mi NNW 6.9 mph - N/A   Scattered Clouds
6:38 PM 17.6 °F 9.3 °F 14.0 °F 86% 29.90 in 10.0 mi NNW 5.8 mph - N/A   Mostly Cloudy
6:58 PM 17.8 °F 8.5 °F 14.4 °F 86% 29.97 in 10.0 mi NNW 6.9 mph - N/A   Mostly Cloudy
7:03 PM 17.6 °F 9.3 °F 14.0 °F 86% 29.90 in 10.0 mi NNW 5.8 mph - N/A   Mostly Cloudy
7:08 PM 17.6 °F 9.3 °F 14.0 °F 86% 29.90 in 10.0 mi NW 5.8 mph - N/A   Mostly Cloudy
7:18 PM 17.6 °F - 14.0 °F 86% 29.90 in 10.0 mi North 2.3 mph - N/A   Mostly Cloudy
7:48 PM 17.6 °F 12.3 °F 14.0 °F 86% 29.90 in 10.0 mi NNW 3.5 mph - N/A   Overcast
7:58 PM 17.8 °F - 14.0 °F 85% 29.97 in 10.0 mi NW 1.2 mph - N/A   Overcast
8:58 PM 18.1 °F 12.9 °F 14.2 °F 84% 29.95 in 10.0 mi WNW 3.5 mph - N/A   Overcast
9:14 PM 17.6 °F 10.7 °F 14.0 °F 86% 29.88 in 10.0 mi NW 4.6 mph - N/A   Overcast
9:58 PM 18.3 °F 11.5 °F 14.5 °F 85% 29.97 in 10.0 mi WNW 4.6 mph - N/A   Mostly Cloudy
10:13 PM 17.6 °F 9.3 °F 14.0 °F 86% 29.89 in 10.0 mi NW 5.8 mph - N/A   Scattered Clouds
10:18 PM 17.6 °F 9.3 °F 14.0 °F 86% 29.89 in 10.0 mi NW 5.8 mph - N/A   Mostly Cloudy
10:58 PM 18.7 °F 10.6 °F 14.2 °F 83% 29.97 in 10.0 mi NW 5.8 mph - N/A   Overcast
11:58 PM 18.9 °F - 14.2 °F 82% 29.97 in 10.0 mi Calm Calm - N/A   Overcast